This is the latest recevied weather packets stored in our database for station/object KC0AFB. If no packets are shown the sender has not sent any weather packets the latest 10 day(s).
| Time | Temp. | Humidity | Pressure | Rain* | Wind** | Luminosity | Snow |
|---|---|---|---|---|---|---|---|
| 1778173747 | 12.78° C | 40% | 1011.3 hPa | 0 mm | - | 835 W/m² | - |
| 1778173443 | 12.78° C | 39% | 1011.5 hPa | 0 mm | - | 830 W/m² | - |
| 1778173140 | 12.78° C | 39% | 1011.7 hPa | 0 mm | - | 809 W/m² | - |
| 1778172835 | 11.67° C | 37% | 1011.9 hPa | 0 mm | - | 808 W/m² | - |
| 1778172532 | 12.22° C | 36% | 1011.9 hPa | 0 mm | - | 799 W/m² | - |
| 1778172229 | 12.22° C | 40% | 1011.6 hPa | 0 mm | - | 810 W/m² | - |
| 1778171926 | 11.67° C | 39% | 1012 hPa | 0 mm | - | 789 W/m² | - |
| 1778171623 | 11.67° C | 41% | 1012 hPa | 0 mm | - | 776 W/m² | - |
| 1778171320 | 11.67° C | 43% | 1012 hPa | 0 mm | - | 775 W/m² | - |
| 1778171015 | 11.11° C | 46% | 1012 hPa | 0 mm | - | 759 W/m² | - |
| 1778170713 | 11.11° C | 43% | 1012.1 hPa | 0 mm | - | 700 W/m² | - |
| 1778170409 | 10.56° C | 49% | 1012 hPa | 0 mm | - | 521 W/m² | - |
| 1778170106 | 10.56° C | 47% | 1012.1 hPa | 0 mm | - | 691 W/m² | - |
| 1778169801 | 10.56° C | 49% | 1012.3 hPa | 0 mm | - | 681 W/m² | - |
| 1778169498 | 10° C | 48% | 1012.2 hPa | 0 mm | - | 665 W/m² | - |
| 1778169194 | 10.56° C | 48% | 1012.2 hPa | 0 mm | - | 673 W/m² | - |
| 1778168891 | 9.44° C | 48% | 1012.4 hPa | 0 mm | - | 661 W/m² | - |
| 1778168588 | 9.44° C | 50% | 1012.3 hPa | 0 mm | - | 635 W/m² | - |
| 1778168285 | 8.89° C | 50% | 1012.3 hPa | 0 mm | - | 588 W/m² | - |
| 1778167981 | 8.89° C | 50% | 1012.3 hPa | 0 mm | - | 602 W/m² | - |
| 1778167678 | 8.89° C | 52% | 1012.5 hPa | 0 mm | - | 70 W/m² | - |
| 1778167374 | 8.33° C | 54% | 1012.4 hPa | 0 mm | - | 65 W/m² | - |
| 1778167070 | 8.89° C | 50% | 1012.2 hPa | 0 mm | - | 70 W/m² | - |
| 1778166766 | 8.33° C | 51% | 1012.4 hPa | 0 mm | - | 559 W/m² | - |
| 1778166463 | 7.78° C | 53% | 1012.6 hPa | 0 mm | - | 539 W/m² | - |
* Rain latest hour (hover to see other rain measurements)
** Current wind speed in m/s (hover to see current wind gust speed)